This demonstration page uses our WeatherBlox Daily Observations layout. Learn more.

Hourly Observations for January 24, 2021

Temp ( °F °C ) Dew Point ( °F °C ) Humidity (%) Winds ( mph kmh ) Pressure ( in mb ) Visibility ( mi km ) Precip ( " mm )
12:53 am 00:53 Mostly Cloudy 27 -2.8 12 -11.1 53 53 ESE 3 6 30.33 1027 10 16.0934 0 0
1:53 am 01:53 Mostly Cloudy 28 -2.2 14 -10 56 56 E 7 11 30.31 1026 10 16.0934 0 0
2:53 am 02:53 Cloudy 28 -2.2 12 -11.1 51 51 VRB 3 6 30.29 1026 10 16.0934 0 0
3:53 am 03:53 Cloudy 28 -2.2 13 -10.6 53 53 ESE 3 6 30.27 1025 10 16.0934 0 0
4:53 am 04:53 Cloudy 29 -1.7 13 -10.6 51 51 E 5 7 30.25 1024 10 16.0934 0 0
5:53 am 05:53 Cloudy 29 -1.7 14 -10 54 54 E 10 17 30.21 1023 10 16.0934 0 0
6:53 am 06:53 Cloudy 30 -1.1 14 -10 51 51 E 8 13 30.22 1023 10 16.0934 0 0
7:53 am 07:53 Cloudy 30 -1.1 13 -10.6 49 49 ESE 7 11 30.23 1024 10 16.0934 0 0
8:53 am 08:53 Cloudy 30 -1.1 14 -10 51 51 ESE 5 7 30.2 1023 10 16.0934 0 0
9:53 am 09:53 Cloudy 31 -0.6 13 -10.6 47 47 ESE 7 11 30.2 1023 10 16.0934 0 0
10:07 am 10:07 Cloudy with Light Snow 30 -1.1 17 -8.3 58 58 ESE 10 17 30.21 1023 2 3.21868 0.001 0.001
10:16 am 10:16 Cloudy with Light Snow 29 -1.7 18 -7.8 63 63 ESE 8 13 30.21 1023 1.5 2.41401 0.001 0.001
10:43 am 10:43 Cloudy with Light Snow 28 -2.2 22 -5.6 78 78 VRB 3 6 30.21 1023 1.75 2.816345 0.001 0.001
10:49 am 10:49 Cloudy with Light Snow 28 -2 21 -6 74 74 Calm 30.23 1024 3 4.82802 0.001 0.001
10:53 am 10:53 Cloudy with Light Snow 29 -1.7 22 -5.6 75 75 Calm 30.21 1023 6 9.65604 0.001 0.001
11:15 am 11:15 Cloudy with Light Snow 29 -1.7 22 -5.6 75 75 Calm 30.22 1023 1.75 2.816345 0.001 0.001
11:23 am 11:23 Cloudy with Light Snow 29 -1.7 23 -5 78 78 Calm 30.22 1023 1.5 2.41401 0.001 0.001
11:27 am 11:27 Cloudy with Light Snow 29 -1.7 23 -5 78 78 VRB 3 6 30.22 1023 2 3.21868 0.001 0.001
11:39 am 11:39 Cloudy with Light Snow 29 -1.7 23 -5 78 78 SE 3 6 30.21 1023 5 8.0467 0.001 0.001
11:53 am 11:53 Cloudy 30 -1.1 23 -5 75 75 VRB 3 6 30.18 1022 10 16.0934 0.001 0.001
12:53 pm 12:53 Cloudy with Light Wintry Mix 31 -0.6 24 -4.4 76 76 SE 5 7 30.11 1020 9 14.48406 0.02 0.508
1:19 pm 13:19 Cloudy 31 -0.6 25 -3.9 79 79 ESE 3 6 30.14 1020 10 16.0934 0.001 0.001
1:53 pm 13:53 Cloudy 32 0 25 -3.9 75 75 Calm 30.09 1019 10 16.0934 0.001 0.001
2:53 pm 14:53 Cloudy 33 0.6 27 -2.8 78 78 Calm 30.09 1019 9 14.48406 0 0
3:20 pm 15:20 Cloudy with Mist and Fog 32 0 28 -2.2 85 85 S 5 7 30.1 1019 6 9.65604 0 0
3:53 pm 15:53 Cloudy 32 0 29 -1.7 88 88 ESE 3 6 30.09 1019 9 14.48406 0 0
4:15 pm 16:15 Cloudy 32 0 29 -1.7 88 88 E 3 6 30.1 1019 9 14.48406 0 0
4:53 pm 16:53 Cloudy 32 0 29 -1.7 88 88 Calm 30.08 1019 7 11.26538 0 0
5:49 pm 17:49 Cloudy with Mist and Fog 32 0 30 -1 93 93 Calm 30.1 1019 4 6.43736 0 0
5:53 pm 17:53 Cloudy with Mist and Fog 32 0 30 -1.1 92 92 Calm 30.09 1019 4 6.43736 0 0
6:53 pm 18:53 Cloudy with Mist and Fog 32 0 30 -1.1 92 92 Calm 30.11 1020 3 4.82802 0 0
7:09 pm 19:09 Cloudy with Mist and Fog 32 0 31 -0.6 96 96 Calm 30.12 1020 2.5 4.02335 0 0
7:33 pm 19:33 Cloudy with Mist and Fog 32 0 31 -0.6 96 96 Calm 30.12 1020 2.5 4.02335 0 0
7:53 pm 19:53 Cloudy with Mist and Fog 32 0 31 -0.6 96 96 ESE 3 6 30.1 1019 2 3.21868 0 0
8:23 pm 20:23 Cloudy with Mist and Fog 32 0 31 -0.6 96 96 Calm 30.12 1020 3 4.82802 0 0
8:46 pm 20:46 Cloudy with Mist and Fog 32 0 31 -0.6 96 96 Calm 30.11 1020 2.5 4.02335 0 0
8:53 pm 20:53 Cloudy with Mist and Fog 32 0 31 -0.6 96 96 Calm 30.1 1019 2.5 4.02335 0 0
9:11 pm 21:11 Cloudy with Mist and Fog 32 0 31 -0.6 96 96 Calm 30.1 1019 1.5 2.41401 0 0
9:24 pm 21:24 Mostly Cloudy with Mist and Fog 32 0 31 -0.6 96 96 Calm 30.11 1020 0.75 1.207005 0 0
9:36 pm 21:36 Cloudy with Mist and Fog 32 0 32 0 100 100 Calm 30.12 1020 1.25 2.011675 0 0
9:53 pm 21:53 Cloudy with Mist and Fog 32 0 32 0 100 100 NNW 3 6 30.1 1019 1 1.60934 0 0
10:21 pm 22:21 Cloudy with Mist and Fog 32 0 31 -0.6 96 96 N 3 6 30.12 1020 0.75 1.207005 0 0
10:53 pm 22:53 Mostly Cloudy with Fog 32 0 31 -0.6 96 96 NNE 3 6 30.1 1019 0.5 0.80467 0 0
11:06 pm 23:06 Cloudy with Mist and Fog 32 0 31 -0.6 96 96 Calm 30.12 1020 1.25 2.011675 0 0
11:27 pm 23:27 Cloudy with Mist and Fog 32 0 31 -0.6 96 96 Calm 30.12 1020 0.75 1.207005 0 0
11:35 pm 23:35 Cloudy with Mist and Fog 32 0 31 -0.6 96 96 Calm 30.12 1020 1.25 2.011675 0 0
11:40 pm 23:40 Cloudy with Mist and Fog 32 0 31 -0.6 96 96 Calm 30.12 1020 2 3.21868 0 0
11:53 pm 23:53 Cloudy with Mist and Fog 32 0 31 -0.6 96 96 Calm 30.11 1020 2.5 4.02335 0 0

Powered by AerisWeather